IT9BGI-13 Carini IT current weather conditions

sailwx.info

Wind from 208 at 4 knots gusting 15

Air temperature 22.8° C
Dewpoint 14.3° C

Last reported at 2020-Oct-26 10:04 UTC.
Time now 2020-Oct-26 10:32 UTC

Location: N 38°09' E 013°11'.
View on Google Maps.

See reports from other nearby stations

  
Tides and Currents Weather Stations Pressure Air Temp Water Temp Dewpoint Dewpoint Depression Visibility Wind Speed Wind Dir Waves Ship Positions
date/time (UTC)wind fromknots sea level pressurealtimeterstation pressurevisibilityair tempwater tempwave heightnotes
2020-Oct-26 10:04 208 4 gusting 15 22.8
2020-Oct-26 09:59 190 3 gusting 13 22.8
2020-Oct-26 09:55 197 4 gusting 13 22.2
2020-Oct-26 09:50 205 4 gusting 12 22.2
2020-Oct-26 09:45 211 4 gusting 12 22.2
2020-Oct-26 09:40 210 5 gusting 10 22.2
2020-Oct-26 09:35 200 2 gusting 10 22.2
2020-Oct-26 09:29 224 2 gusting 8 22.2
2020-Oct-26 09:25 218 4 gusting 11 22.2
2020-Oct-26 09:20 212 5 gusting 11 22.2
2020-Oct-26 09:15 215 3 gusting 10 22.2
2020-Oct-26 09:10 216 0 gusting 9 22.2
2020-Oct-26 09:05 205 2 gusting 9 22.2
2020-Oct-26 08:59 206 1 gusting 9 21.7
2020-Oct-26 08:55 200 1 gusting 9 21.7
2020-Oct-26 08:50 201 1 gusting 9 21.7
2020-Oct-26 08:44 204 2 gusting 9 21.7
2020-Oct-26 08:40 197 4 gusting 13 21.1
2020-Oct-26 08:35 188 3 gusting 13 21.1
2020-Oct-26 08:29 171 0 gusting 6 21.1
2020-Oct-26 08:25 183 0 gusting 5 21.1
2020-Oct-26 08:19 201 1 gusting 8 21.1
2020-Oct-26 08:14 196 1 gusting 8 21.1
2020-Oct-26 08:09 197 0 gusting 7 20.6
2020-Oct-26 08:05 205 0 gusting 6 20.6
2020-Oct-26 07:59 197 20.6
2020-Oct-26 07:55 188 20.6
2020-Oct-26 07:49 197 0 gusting 9 20.0
2020-Oct-26 07:45 193 0 gusting 9 20.0
2020-Oct-26 07:40 184 0 gusting 6 20.0
2020-Oct-26 07:34 183 0 gusting 5 19.4
2020-Oct-26 07:29 185 2 gusting 6 19.4
2020-Oct-26 07:25 189 2 gusting 6 19.4
2020-Oct-26 07:20 197 1 gusting 6 19.4
2020-Oct-26 07:15 200 1 gusting 6 18.9
2020-Oct-26 07:10 200 2 gusting 6 18.9
2020-Oct-26 07:05 202 2 gusting 11 18.9
2020-Oct-26 07:00 205 2 gusting 11 18.3
2020-Oct-26 06:55 207 1 gusting 6 18.3
2020-Oct-26 06:50 217 18.3
2020-Oct-26 06:44 204 18.3
2020-Oct-26 06:40 211 0 gusting 5 17.8
2020-Oct-26 06:35 204 0 gusting 5 17.8
2020-Oct-26 06:29 189 0 gusting 7 17.8
2020-Oct-26 06:25 192 2 gusting 8 17.2
2020-Oct-26 06:19 195 1 gusting 8 17.2
2020-Oct-26 06:15 197 16.7
2020-Oct-26 06:10 16.7
2020-Oct-26 06:05 120 16.1
2020-Oct-26 05:59 120 16.1
2020-Oct-26 05:55 16.1
2020-Oct-26 05:50 187 16.1
2020-Oct-26 05:45 199 0 gusting 6 16.1
2020-Oct-26 05:40 197 1 gusting 6 16.7
2020-Oct-26 05:35 190 0 gusting 5 16.1
2020-Oct-26 05:29 16.1
2020-Oct-26 05:25 135 16.1
2020-Oct-26 05:20 135 15.6
2020-Oct-26 05:14 16.1
2020-Oct-26 05:10 125 16.1
2020-Oct-26 05:05 158 16.1
2020-Oct-26 05:00 201 16.1
2020-Oct-26 04:55 225 16.7
2020-Oct-26 04:49 208 16.7
2020-Oct-26 04:44 199 0 gusting 6 16.1
2020-Oct-26 04:40 198 0 gusting 6 16.7
2020-Oct-26 04:35 16.1
2020-Oct-26 04:29 208 0 gusting 7 16.7
2020-Oct-26 04:25 208 0 gusting 7 16.7
2020-Oct-26 04:20 195 0 gusting 5 16.7
2020-Oct-26 04:14 195 1 gusting 5 16.7
2020-Oct-26 04:10 206 0 gusting 7 16.7
2020-Oct-26 04:05 212 0 gusting 7 16.7
2020-Oct-26 04:00 184 16.7
2020-Oct-26 03:55 16.7
2020-Oct-26 03:50 16.1
2020-Oct-26 00:04
2020-Oct-25 22:04
2020-Oct-25 20:05
2020-Oct-25 20:00
2020-Oct-25 19:04
2020-Oct-25 18:10
2020-Oct-25 18:05
2020-Oct-25 17:05
2020-Oct-25 16:05 19.4
2020-Oct-25 15:14
2020-Oct-25 15:10
2020-Oct-25 15:05 20.0
2020-Oct-25 15:00 20.0
2020-Oct-25 14:30 333 0 20.6
2020-Oct-25 14:24 318 0 20.6
2020-Oct-25 14:20 20.6
2020-Oct-25 14:15 326 3 20.6
2020-Oct-25 14:10 325 3 20.6
2020-Oct-25 14:05 331 3 20.6
2020-Oct-25 13:44 338 2 20.6
2020-Oct-25 13:40 328 2 20.6
2020-Oct-25 13:35 314 3 20.6
2020-Oct-25 13:29 314 2 20.6
2020-Oct-25 13:25 325 2 20.6
2020-Oct-25 13:20 324 4 21.1
2020-Oct-25 13:14
2020-Oct-25 13:10
2020-Oct-25 13:05
2020-Oct-25 12:59
2020-Oct-25 12:55
2020-Oct-25 12:50
2020-Oct-25 12:44
2020-Oct-25 12:39
2020-Oct-25 12:34
2020-Oct-25 12:28
2020-Oct-25 12:25
2020-Oct-25 12:19
2020-Oct-25 12:14
2020-Oct-25 12:10
2020-Oct-25 12:04
2020-Oct-25 12:00
2020-Oct-25 11:55
2020-Oct-25 11:49
2020-Oct-25 11:44
2020-Oct-25 11:40
2020-Oct-25 11:35
2020-Oct-25 11:30
2020-Oct-25 11:25
2020-Oct-25 11:20
2020-Oct-25 11:14
2020-Oct-25 11:10
2020-Oct-25 11:05
2020-Oct-25 10:59
2020-Oct-25 10:55
2020-Oct-25 10:49
2020-Oct-25 10:45
2020-Oct-25 10:40
2020-Oct-25 10:35
2020-Oct-25 10:29
2020-Oct-25 10:25
2020-Oct-25 10:20 21.1
2020-Oct-25 10:14 21.7
2020-Oct-25 10:10 21.7
2020-Oct-25 10:05 21.7
2020-Oct-25 09:59 21.7
2020-Oct-25 09:55 21.7
2020-Oct-25 09:50 22.2
2020-Oct-25 09:45 22.2
2020-Oct-25 09:40 21.7
2020-Oct-25 09:35 21.7
2020-Oct-25 09:29 21.7
2020-Oct-25 09:25 21.1
2020-Oct-25 09:20 21.1
2020-Oct-25 09:15 21.1
2020-Oct-25 09:10 20.6
2020-Oct-25 09:05 20.6
2020-Oct-25 09:00 20.6
2020-Oct-25 08:55 20.6
2020-Oct-25 08:50 20.6
2020-Oct-25 08:44 20.6
2020-Oct-25 08:40 20.6
2020-Oct-25 08:35 20.6
2020-Oct-25 08:29 20.6
2020-Oct-25 08:25 20.6
2020-Oct-25 08:19 20.6
2020-Oct-25 08:14 253 2 20.6
2020-Oct-25 08:10 250 1 20.6
2020-Oct-25 08:05 231 2 20.6
2020-Oct-25 07:59 228 3 20.6
2020-Oct-25 07:55 258 2 20.6
2020-Oct-25 07:50 267 3 20.6
2020-Oct-25 07:44 238 3 20.6
2020-Oct-25 07:40 245 3 20.6
2020-Oct-25 07:35 264 3 20.6
2020-Oct-25 07:30 277 2 20.6
2020-Oct-25 07:25 292 1 20.6
2020-Oct-25 07:20 295 1 20.0
2020-Oct-25 07:14 280 0 20.0
2020-Oct-25 07:10 265 0 20.0
2020-Oct-25 07:04 265 3 20.0
2020-Oct-25 06:59 267 2 20.0
2020-Oct-25 06:54 299 1 20.0
2020-Oct-25 06:50 273 1 19.4
2020-Oct-25 06:45 258 2 20.0
2020-Oct-25 06:39 265 0 19.4
2020-Oct-25 06:35 19.4
2020-Oct-25 06:29 19.4
2020-Oct-25 06:25 19.4
2020-Oct-25 06:20 250 0 19.4
2020-Oct-25 06:15 250 0 19.4
2020-Oct-25 06:10 270 19.4
2020-Oct-25 06:05 284 19.4
2020-Oct-25 05:59 280 19.4
2020-Oct-25 05:55 259 19.4
2020-Oct-25 05:50 294 0 19.4
2020-Oct-25 05:45 309 0 18.9
2020-Oct-25 05:40 252 0 18.9
2020-Oct-25 05:35 229 18.9
2020-Oct-25 05:29 18.9
2020-Oct-25 05:25 308 0 18.9
2020-Oct-25 05:20 305 0 18.9
2020-Oct-25 05:14 18.9
2020-Oct-25 05:10 333 0 gusting 4 18.9
2020-Oct-25 05:05 324 1 gusting 4 18.9
2020-Oct-25 04:59 328 0 gusting 4 18.9
2020-Oct-25 04:55 292 18.9
2020-Oct-25 04:49 248 0 gusting 8 18.9
2020-Oct-25 04:45 247 0 gusting 8 18.9
2020-Oct-25 04:39 247 18.9
2020-Oct-25 04:35 18.9
2020-Oct-25 04:29 333 18.9
2020-Oct-25 04:25 320 0 gusting 5 19.4
2020-Oct-25 04:20 323 1 gusting 6 19.4
2020-Oct-25 04:14 314 2 gusting 6 19.4
2020-Oct-25 04:10 304 3 gusting 8 19.4
2020-Oct-25 04:05 310 4 gusting 13 19.4
2020-Oct-25 03:59 324 2 gusting 13 19.4
2020-Oct-25 03:55 330 0 gusting 7 19.4
2020-Oct-25 03:50 297 1 gusting 7 19.4
2020-Oct-25 03:44 314 3 gusting 9 19.4
2020-Oct-25 03:39 319 3 gusting 10 19.4
2020-Oct-25 03:35 315 2 gusting 10 18.9
2020-Oct-25 03:29 320 18.9
2020-Oct-25 03:25 297 0 gusting 7 19.4
2020-Oct-25 03:19 316 2 gusting 8 19.4
2020-Oct-25 03:14 314 3 gusting 10 19.4
2020-Oct-25 03:10 311 2 gusting 10 19.4
2020-Oct-25 03:05 319 0 gusting 8 19.4
2020-Oct-25 02:59 313 2 gusting 7 19.4
2020-Oct-25 02:55 314 2 gusting 7 19.4
2020-Oct-25 02:50 306 1 gusting 7 19.4
2020-Oct-25 02:44 308 0 gusting 6 18.9
2020-Oct-25 02:40 309 1 gusting 6 18.9
2020-Oct-25 02:35 303 1 gusting 5 18.9
2020-Oct-25 02:29 306 1 gusting 5 19.4
2020-Oct-25 02:25 306 1 gusting 5 19.4
2020-Oct-25 02:19 303 19.4
2020-Oct-25 02:14 19.4
2020-Oct-25 02:10 266 0 gusting 7 19.4
2020-Oct-25 02:05 266 0 gusting 7 19.4
2020-Oct-25 01:59 19.4
2020-Oct-25 01:55 19.4
2020-Oct-25 01:49 19.4
2020-Oct-25 01:44 316 0 gusting 4 19.4
2020-Oct-25 01:40 278 2 gusting 8 19.4
2020-Oct-25 01:35 289 4 gusting 8 19.4
2020-Oct-25 01:29 308 1 gusting 7 19.4
2020-Oct-25 01:25 291 1 gusting 7 19.4
2020-Oct-25 01:20 294 3 gusting 11 19.4
2020-Oct-25 01:15 315 3 gusting 11 19.4
2020-Oct-25 01:10 306 3 gusting 9 20.0
2020-Oct-25 01:05 315 4 gusting 9 20.0
2020-Oct-25 00:59 324 1 gusting 9 20.0
2020-Oct-25 00:55 312 1 gusting 8 19.4
2020-Oct-25 00:50 318 2 gusting 8 20.0
2020-Oct-25 00:44 318 0 gusting 7 19.4
2020-Oct-25 00:39 330 0 gusting 6 20.0
2020-Oct-25 00:35 334 2 gusting 6 20.0
2020-Oct-25 00:29 320 4 gusting 10 20.0
2020-Oct-25 00:25 317 4 gusting 10 20.0
2020-Oct-25 00:20 323 3 gusting 9 20.0
2020-Oct-25 00:14 313 3 gusting 8 20.0
2020-Oct-25 00:10 309 3 gusting 7 20.0
2020-Oct-25 00:05 323 5 gusting 9 20.0
2020-Oct-24 23:59 314 5 gusting 10 20.0
2020-Oct-24 23:55 310 5 gusting 10 20.0
2020-Oct-24 23:49 303 4 gusting 13 20.0
2020-Oct-24 23:44 305 5 gusting 13 20.0
2020-Oct-24 23:40 315 5 gusting 11 20.0
2020-Oct-24 23:35 312 4 gusting 11 20.0
2020-Oct-24 23:29 300 2 gusting 9 20.0
2020-Oct-24 23:25 316 3 gusting 11 20.0
2020-Oct-24 23:20 313 5 gusting 11 20.0
2020-Oct-24 23:14 300 4 gusting 9 20.0
2020-Oct-24 23:10 300 4 gusting 7 20.0
2020-Oct-24 23:04 306 4 gusting 9 20.0
2020-Oct-24 22:59 306 2 gusting 9 20.0
2020-Oct-24 22:55 297 0 gusting 6 20.0
2020-Oct-24 22:50 20.0
2020-Oct-24 22:45 20.0
2020-Oct-24 22:40 318 0 gusting 5 20.0
2020-Oct-24 22:35 317 1 gusting 6 20.0
2020-Oct-24 22:30 309 2 gusting 7 20.0
2020-Oct-24 22:25 315 3 gusting 7 20.0
2020-Oct-24 22:20 317 3 gusting 8 20.0
2020-Oct-24 22:15 314 4 gusting 9 20.0
2020-Oct-24 22:09 320 5 gusting 9 20.6
2020-Oct-24 22:05 316 4 gusting 8 20.6
2020-Oct-24 21:59 309 4 gusting 10 20.0
2020-Oct-24 21:55 313 4 gusting 10 20.0
2020-Oct-24 21:50 311 3 gusting 10 20.6
2020-Oct-24 21:44 305 4 gusting 10 20.6
2020-Oct-24 21:40 305 4 gusting 12 20.6
2020-Oct-24 21:35 287 5 gusting 12 20.6
2020-Oct-24 21:29 267 6 gusting 10 20.6
2020-Oct-24 21:25 281 4 gusting 10 20.6
2020-Oct-24 21:19 318 2 gusting 10 20.6
2020-Oct-24 21:14 309 4 gusting 11 20.6
2020-Oct-24 21:10 301 4 gusting 11 20.6
2020-Oct-24 21:05 286 2 gusting 9 20.6
2020-Oct-24 20:59 258 0 gusting 5 20.0
2020-Oct-24 20:55 259 1 gusting 6 20.0
2020-Oct-24 20:50 297 3 gusting 13 20.6
2020-Oct-24 20:45 312 2 gusting 13 20.6
2020-Oct-24 20:40 273 1 gusting 6 20.6
2020-Oct-24 20:35 293 2 gusting 7 20.6
2020-Oct-24 20:30 308 2 gusting 7 20.6
2020-Oct-24 20:25 313 0 gusting 7 20.0
2020-Oct-24 20:19 356 0 gusting 4 20.0
2020-Oct-24 20:14 358 0 gusting 4 20.0
2020-Oct-24 20:09 319 0 gusting 7 20.0
2020-Oct-24 20:05 319 0 gusting 7 20.0
2020-Oct-24 19:59 20.0
2020-Oct-24 19:55 20.0
2020-Oct-24 19:49 248 1 gusting 6 20.0
2020-Oct-24 19:44 248 1 gusting 6 20.0
2020-Oct-24 19:40 248 20.0
2020-Oct-24 19:35 20.0
2020-Oct-24 19:29 20.0
2020-Oct-24 19:25 20.0
2020-Oct-24 19:20 20.0
2020-Oct-24 19:14 324 1 gusting 7 20.0
2020-Oct-24 19:10 319 2 gusting 7 20.0
2020-Oct-24 19:04 314 0 gusting 6 20.0
2020-Oct-24 18:59 270 20.0
2020-Oct-24 18:54 314 20.0
2020-Oct-24 18:50 323 1 gusting 6 20.0
2020-Oct-24 18:44 318 2 gusting 7 20.0
2020-Oct-24 18:40 307 2 gusting 8 20.0
2020-Oct-24 18:35 320 3 gusting 8 20.6
2020-Oct-24 18:29 341 0 gusting 7 20.6
2020-Oct-24 18:24 20.6
2020-Oct-24 18:20 292 20.6
2020-Oct-24 18:15 292 20.6
2020-Oct-24 18:09 299 20.6
2020-Oct-24 18:05 299 20.6
2020-Oct-24 17:59 323 20.6
2020-Oct-24 17:55 317 1 gusting 9 20.6
2020-Oct-24 17:50 318 1 gusting 9 20.6
2020-Oct-24 17:44 320 1 gusting 7 20.6
2020-Oct-24 17:39 319 2 gusting 7 20.6
2020-Oct-24 17:35 329 0 gusting 6 20.6
2020-Oct-24 17:29 20.6
2020-Oct-24 17:25 343 20.6
2020-Oct-24 17:19 320 1 gusting 5 20.6
2020-Oct-24 17:15 319 2 gusting 5 20.6
2020-Oct-24 17:10 318 1 gusting 5 20.6
2020-Oct-24 17:05 20.6
2020-Oct-24 16:59 20.6
2020-Oct-24 16:55 20.6
2020-Oct-24 16:50 20.6
2020-Oct-24 16:45 20.6
2020-Oct-24 16:40 20.6
2020-Oct-24 16:35 045 20.6
2020-Oct-24 16:30 045 20.6
2020-Oct-24 16:25 298 0 gusting 3 20.6
2020-Oct-24 16:19 300 0 gusting 3 20.6
2020-Oct-24 16:15 331 20.6
2020-Oct-24 16:09 344 20.6
2020-Oct-24 16:05 20.6
2020-Oct-24 15:59 20.6
2020-Oct-24 15:55 292 21.1
2020-Oct-24 15:49 226 21.1
2020-Oct-24 15:44 202 21.1
2020-Oct-24 15:40 265 0 gusting 4 21.1
2020-Oct-24 15:35 278 2 gusting 9 21.1
2020-Oct-24 15:30 304 3 gusting 9 21.1
2020-Oct-24 15:25 319 3 gusting 7 21.1
2020-Oct-24 15:20 310 3 gusting 8 21.1
2020-Oct-24 15:14 306 2 gusting 8 21.1
2020-Oct-24 15:10 291 1 gusting 6 21.7
2020-Oct-24 15:05 323 1 gusting 6 21.7
2020-Oct-24 14:59 350 3 gusting 6 21.7
2020-Oct-24 14:55 351 2 gusting 6 21.7
2020-Oct-24 14:49 315 21.7
2020-Oct-24 14:44 292 21.7
2020-Oct-24 14:40 21.7
2020-Oct-24 14:35 340 21.7
2020-Oct-24 14:29 335 0 gusting 5 21.7
2020-Oct-24 14:24 331 1 gusting 7 21.1
2020-Oct-24 14:20 321 3 gusting 9 21.1
2020-Oct-24 14:15 320 4 gusting 9 21.7
2020-Oct-24 14:10 327 4 gusting 11 21.7
2020-Oct-24 14:05 329 5 gusting 11 21.7
2020-Oct-24 13:59 332 6 gusting 11 21.7
2020-Oct-24 13:55 335 5 gusting 11 21.7
2020-Oct-24 13:50 336 4 gusting 8 21.7
2020-Oct-24 13:44 342 4 gusting 9 21.7
2020-Oct-24 13:40 355 4 gusting 9 21.7
2020-Oct-24 13:35 001 4 gusting 8 21.7
2020-Oct-24 13:29 353 3 gusting 7 21.7
2020-Oct-24 13:25 356 2 gusting 7 21.7
2020-Oct-24 13:20 359 1 gusting 6 22.2
2020-Oct-24 13:14 327 1 gusting 3 22.2
2020-Oct-24 13:10 006 1 gusting 6 22.2
2020-Oct-24 13:05 004 2 gusting 6 22.2
2020-Oct-24 13:00 360 1 gusting 6 22.2
2020-Oct-24 12:55 007 2 gusting 9 22.8
2020-Oct-24 12:50 356 2 gusting 9 22.8
2020-Oct-24 12:45 343 3 gusting 7 22.2
2020-Oct-24 12:40 335 3 gusting 7 22.2
2020-Oct-24 12:35 330 1 gusting 7 22.8
2020-Oct-24 12:29 005 22.8
2020-Oct-24 12:24 347 1 gusting 6 22.8
2020-Oct-24 12:19 334 1 gusting 6 22.8
2020-Oct-24 12:14 334 2 gusting 6 22.8
2020-Oct-24 12:10 331 3 gusting 6 22.8
2020-Oct-24 12:05 329 3 gusting 6 22.8
2020-Oct-24 11:59 332 4 gusting 8 22.2
2020-Oct-24 11:55 329 5 gusting 8 22.2
2020-Oct-24 11:50 333 5 gusting 10 22.2
2020-Oct-24 11:45 349 5 gusting 11 22.2
2020-Oct-24 11:40 350 5 gusting 11 22.2
2020-Oct-24 11:35 342 5 gusting 10 22.2
2020-Oct-24 11:30 346 5 gusting 10 22.2
2020-Oct-24 11:25 351 5 gusting 11 22.2
2020-Oct-24 11:20 342 5 gusting 11 22.8
2020-Oct-24 11:14 347 4 gusting 7 22.8
2020-Oct-24 11:10 005 3 gusting 6 22.8
2020-Oct-24 11:05 001 4 gusting 9 22.8
2020-Oct-24 10:59 351 5 gusting 9 22.8
2020-Oct-24 10:54 346 4 gusting 8 22.8
2020-Oct-24 10:50 347 4 gusting 7 23.3
2020-Oct-24 10:44 342 3 gusting 7 23.3
2020-Oct-24 10:40 341 3 gusting 7 23.3
2020-Oct-24 10:35 345 1 gusting 6 22.8
2020-Oct-24 10:29 328 22.2